TimeMST,TemperatureF,Dew PointF,Humidity,Sea Level PressureIn,VisibilityMPH,Wind Direction,Wind SpeedMPH,Gust SpeedMPH,PrecipitationIn,Events,Conditions,WindDirDegrees,DateUTC
12:48 AM,39.9,30.9,70,29.79,-9999.0,SE,4.6,-,N/A,,Unknown,130,2012-11-18 07:48:00
1:48 AM,41.0,30.9,67,29.77,-9999.0,ENE,8.1,-,N/A,,Unknown,70,2012-11-18 08:48:00
2:48 AM,37.9,30.0,73,29.76,-9999.0,ENE,5.8,-,N/A,,Unknown,70,2012-11-18 09:48:00
3:48 AM,34.0,28.0,79,29.75,-9999.0,NNE,3.5,-,N/A,,Unknown,30,2012-11-18 10:48:00
4:48 AM,34.0,28.9,82,29.74,-9999.0,East,5.8,-,N/A,,Unknown,90,2012-11-18 11:48:00
5:48 AM,28.0,26.1,92,29.75,-9999.0,Calm,Calm,-,N/A,,Unknown,0,2012-11-18 12:48:00
6:48 AM,30.9,27.0,85,29.74,-9999.0,Calm,Calm,-,N/A,,Unknown,0,2012-11-18 13:48:00
7:48 AM,30.0,27.0,88,29.74,-9999.0,Calm,Calm,-,N/A,,Unknown,0,2012-11-18 14:48:00
8:48 AM,34.0,30.0,85,29.73,-9999.0,Calm,Calm,-,N/A,,Unknown,0,2012-11-18 15:48:00
9:48 AM,39.9,33.1,77,29.75,-9999.0,Calm,Calm,-,N/A,,Unknown,0,2012-11-18 16:48:00
10:48 AM,48.0,34.0,58,29.74,-9999.0,South,5.8,-,N/A,,Unknown,170,2012-11-18 17:48:00
11:48 AM,51.1,35.1,54,29.76,-9999.0,West,5.8,-,N/A,,Unknown,260,2012-11-18 18:48:00
12:48 PM,51.1,36.0,56,29.77,-9999.0,West,8.1,-,N/A,,Unknown,280,2012-11-18 19:48:00
1:48 PM,46.9,34.0,61,29.81,-9999.0,WNW,9.2,-,N/A,,Unknown,300,2012-11-18 20:48:00
2:48 PM,46.9,32.0,56,29.84,-9999.0,WNW,9.2,-,N/A,,Unknown,300,2012-11-18 21:48:00
3:48 PM,45.0,30.0,56,29.90,-9999.0,NW,9.2,-,N/A,,Unknown,310,2012-11-18 22:48:00
4:48 PM,42.1,30.0,62,29.94,-9999.0,Calm,Calm,-,N/A,,Unknown,0,2012-11-18 23:48:00
5:48 PM,41.0,28.9,62,29.98,-9999.0,Calm,Calm,-,N/A,,Unknown,0,2012-11-19 00:48:00
6:48 PM,36.0,28.9,76,30.00,-9999.0,SW,4.6,-,N/A,,Unknown,230,2012-11-19 01:48:00
7:48 PM,36.0,28.9,76,30.05,-9999.0,Calm,Calm,-,N/A,,Unknown,0,2012-11-19 02:48:00
8:48 PM,35.1,28.0,76,30.04,-9999.0,North,3.5,-,N/A,,Unknown,360,2012-11-19 03:48:00
9:48 PM,30.0,27.0,88,30.07,-9999.0,WNW,3.5,-,N/A,,Unknown,300,2012-11-19 04:48:00
10:48 PM,28.9,26.1,89,30.06,-9999.0,West,3.5,-,N/A,,Unknown,270,2012-11-19 05:48:00
11:48 PM,32.0,28.0,85,30.07,-9999.0,Calm,Calm,-,N/A,,Unknown,0,2012-11-19 06:48:00